KC5TIL-3 Weather Reports


Display with metric or nautical units.
time (UTC)temp
F
wind
direction
speed
MPH
gust
MPH
rain 1hr
in
rain 24hr
in
rain mn
in
humidity
%
barometer
mb
20260905071954 83 177 4.0 10.0 0.00 0.00 0.00 40 1010.8
20260905071456 83 217 5.0 8.0 0.00 0.00 0.00 40 1010.8
20260905070954 83 193 6.0 8.0 0.00 0.00 0.00 40 1010.8
20260905070456 83 212 6.0 10.0 0.00 0.00 0.00 39 1010.8
20260905065954 83 217 6.0 10.0 0.00 0.00 0.00 39 1010.8
20260905065447 83 163 5.0 8.0 0.00 0.00 0.00 39 1010.8
20260905064949 83 211 4.0 10.0 0.00 0.00 0.00 39 1010.8
20260905064451 84 205 6.0 8.0 0.00 0.00 0.00 38 1010.8
20260905063950 84 201 5.0 10.0 0.00 0.00 0.00 38 1010.8
20260905063451 84 141 6.0 7.0 0.00 0.00 0.00 38 1010.8
20260905062953 84 212 4.0 8.0 0.00 0.00 0.00 37 1010.8
20260905062452 84 167 5.0 9.0 0.00 0.00 0.00 37 1010.8
20260905061954 84 147 4.0 8.0 0.00 0.00 0.00 36 1010.8
20260905061456 84 200 4.0 9.0 0.00 0.00 0.00 35 1010.8
20260905060954 84 216 6.0 10.0 0.00 0.00 0.00 35 1010.8
20260905060456 84 207 6.0 8.0 0.00 0.00 0.00 35 1010.8
20260905055958 85 207 5.0 7.0 0.00 0.00 0.00 35 1010.8
20260905055457 85 158 5.0 8.0 0.00 0.00 0.00 35 1010.8
20260905054954 85 160 5.0 10.0 0.00 0.00 0.00 35 1010.8
20260905054456 85 212 5.0 9.0 0.00 0.00 0.00 35 1010.8
20260905053955 85 151 5.0 8.0 0.00 0.00 0.00 34 1010.8
20260905053456 85 206 5.0 10.0 0.00 0.00 0.00 33 1010.8
20260905052958 85 164 4.0 9.0 0.00 0.00 0.00 33 1010.8
20260905052452 85 215 5.0 10.0 0.00 0.00 0.00 33 1010.8
20260905051954 85 197 6.0 9.0 0.00 0.00 0.00 32 1010.8
20260905051456 85 147 5.0 9.0 0.00 0.00 0.00 32 1010.8
20260905050955 85 160 6.0 7.0 0.00 0.00 0.00 32 1010.8
20260905050457 86 153 5.0 8.0 0.00 0.00 0.00 31 1010.8
20260905045958 86 146 5.0 8.0 0.00 0.00 0.00 31 1010.8
20260905045457 86 143 5.0 9.0 0.00 0.00 0.00 31 1010.8
20260905044959 86 151 5.0 9.0 0.00 0.00 0.00 30 1010.8
20260905044456 86 205 5.0 7.0 0.00 0.00 0.00 30 1010.8
20260905043955 87 187 4.0 9.0 0.00 0.00 0.00 30 1010.8
20260905043457 87 198 5.0 10.0 0.00 0.00 0.00 29 1010.8
20260905042959 87 174 4.0 10.0 0.00 0.00 0.00 29 1010.8
20260905042453 87 120 6.0 12.0 0.00 0.00 0.00 29 1010.8
20260905041955 87 225 7.0 10.0 0.00 0.00 0.00 28 1010.8
20260905041457 87 139 5.0 10.0 0.00 0.00 0.00 28 1010.8
20260905040955 87 219 5.0 11.0 0.00 0.00 0.00 27 1010.8
20260905040457 87 141 6.0 9.0 0.00 0.00 0.00 27 1010.8
20260905035959 88 128 5.0 10.0 0.00 0.00 0.00 25 1010.8
20260905035458 88 195 5.0 12.0 0.00 0.00 0.00 25 1010.8
20260905034959 88 215 7.0 12.0 0.00 0.00 0.00 24 1010.8
20260905034501 88 139 4.0 10.0 0.00 0.00 0.00 23 1010.8
20260905034000 88 210 6.0 12.0 0.00 0.00 0.00 22 1010.8
20260905033502 89 179 4.0 10.0 0.00 0.00 0.00 21 1010.8
20260905033004 89 181 4.0 10.0 0.00 0.00 0.00 21 1010.8
20260905032502 89 214 5.0 10.0 0.00 0.00 0.00 20 1010.8
20260905032004 89 169 6.0 11.0 0.00 0.00 0.00 20 1010.8
20260905031506 90 222 5.0 11.0 0.00 0.00 0.00 20 1010.8
20260905031005 90 156 6.0 12.0 0.00 0.00 0.00 19 1010.8
20260905030506 90 132 7.0 11.0 0.00 0.00 0.00 19 1010.8
20260905030008 90 127 6.0 10.0 0.00 0.00 0.00 19 1010.8
20260905025507 90 135 5.0 12.0 0.00 0.00 0.00 18 1010.8
20260905025009 91 129 5.0 8.0 0.00 0.00 0.00 18 1010.8
20260905024511 91 170 4.0 7.0 0.00 0.00 0.00 18 1009.8
20260905024009 91 147 4.0 9.0 0.00 0.00 0.00 18 1009.8
20260905023511 91 129 4.0 9.0 0.00 0.00 0.00 18 1009.8
20260905023013 91 111 5.0 11.0 0.00 0.00 0.00 18 1009.8
20260905022512 91 128 7.0 8.0 0.00 0.00 0.00 18 1009.8
20260905022013 92 114 6.0 11.0 0.00 0.00 0.00 18 1009.8
20260905021515 92 131 4.0 11.0 0.00 0.00 0.00 18 1009.8
20260905021004 92 131 7.0 12.0 0.00 0.00 0.00 18 1009.8
20260905020506 92 129 7.0 10.0 0.00 0.00 0.00 18 1009.8
20260905020008 92 142 7.0 9.0 0.00 0.00 0.00 17 1009.8
20260905015507 92 155 6.0 11.0 0.00 0.00 0.00 17 1009.8
20260905015003 92 122 8.0 9.0 0.00 0.00 0.00 17 1009.8
20260905014505 93 136 5.0 9.0 0.00 0.00 0.00 17 1008.8
20260905014004 93 124 5.0 10.0 0.00 0.00 0.00 17 1008.8
20260905013506 93 153 7.0 10.0 0.00 0.00 0.00 17 1008.8
20260905013003 93 123 5.0 11.0 0.00 0.00 0.00 17 1008.8
20260905012502 93 127 7.0 13.0 0.00 0.00 0.00 17 1008.8
20260905012004 93 138 7.0 12.0 0.00 0.00 0.00 17 1008.8
20260905011506 93 138 7.0 10.0 0.00 0.00 0.00 17 1008.8
20260905011000 93 114 7.0 13.0 0.00 0.00 0.00 17 1008.8
20260905010501 94 143 10.0 14.0 0.00 0.00 0.00 17 1008.8
20260905010003 94 133 8.0 14.0 0.00 0.00 0.00 17 1008.8
20260905005457 94 109 9.0 13.0 0.00 0.00 0.00 17 1008.8
20260905004959 94 109 9.0 15.0 0.00 0.00 0.00 16 1008.8
20260905004501 94 129 10.0 14.0 0.00 0.00 0.00 16 1008.8
20260905003959 94 134 10.0 14.0 0.00 0.00 0.00 16 1008.8
20260905003501 94 122 9.0 16.0 0.00 0.00 0.00 16 1008.8
20260905003003 95 113 8.0 13.0 0.00 0.00 0.00 16 1008.8
20260905002502 95 124 11.0 14.0 0.00 0.00 0.00 16 1008.8
20260905001959 95 125 8.0 11.0 0.00 0.00 0.00 16 1008.8
20260905001501 96 234 5.0 8.0 0.00 0.00 0.00 16 1007.8
20260905000959 96 156 5.0 10.0 0.00 0.00 0.00 13 1007.8
20260905000501 96 203 6.0 10.0 0.00 0.00 0.00 13 1007.8
20260905000003 96 123 8.0 9.0 0.00 0.00 0.00 13 1007.8
20260904235502 96 135 5.0 10.0 0.00 0.00 0.00 13 1007.8
20260904235003 97 138 7.0 10.0 0.00 0.00 0.00 16 1007.8
20260904234505 97 175 4.0 11.0 0.00 0.00 0.00 16 1008.8
20260904234004 97 131 7.0 10.0 0.00 0.00 0.00 16 1008.8
20260904233506 97 129 5.0 10.0 0.00 0.00 0.00 16 1008.8
20260904233008 97 138 6.0 14.0 0.00 0.00 0.00 16 1007.8
20260904232506 97 136 4.0 11.0 0.00 0.00 0.00 16 1007.8
20260904232008 97 156 9.0 9.0 0.00 0.00 0.00 16 1007.8
20260904231510 98 211 5.0 8.0 0.00 0.00 0.00 15 1008.8
20260904231008 97 118 5.0 12.0 0.00 0.00 0.00 16 1008.8
20260904230510 97 118 9.0 12.0 0.00 0.00 0.00 16 1008.8
20260904230012 97 118 9.0 12.0 0.00 0.00 0.00 16 1008.8
20260904225506 96 117 6.0 12.0 0.00 0.00 0.00 16 1008.8
20260904225008 96 153 7.0 10.0 0.00 0.00 0.00 16 1008.8
20260904224510 97 136 7.0 10.0 0.00 0.00 0.00 16 1008.8
20260904224004 97 128 7.0 11.0 0.00 0.00 0.00 16 1008.8
20260904223506 97 200 7.0 10.0 0.00 0.00 0.00 13 1008.8
20260904223008 97 132 6.0 9.0 0.00 0.00 0.00 13 1008.8
20260904222506 97 133 4.0 12.0 0.00 0.00 0.00 13 1008.8
20260904222004 97 158 9.0 12.0 0.00 0.00 0.00 13 1008.8
20260904221506 97 114 6.0 9.0 0.00 0.00 0.00 13 1008.8
20260904221004 97 212 4.0 9.0 0.00 0.00 0.00 13 1008.8
20260904220506 98 113 7.0 12.0 0.00 0.00 0.00 13 1008.8
20260904220008 97 124 8.0 9.0 0.00 0.00 0.00 16 1008.8
20260904215507 98 189 4.0 10.0 0.00 0.00 0.00 15 1008.8
20260904215008 98 194 5.0 9.0 0.00 0.00 0.00 15 1008.8
20260904214510 98 237 5.0 11.0 0.00 0.00 0.00 15 1008.8
20260904214009 98 132 6.0 10.0 0.00 0.00 0.00 15 1008.8
20260904213511 98 133 6.0 12.0 0.00 0.00 0.00 15 1008.8
20260904213013 97 149 6.0 11.0 0.00 0.00 0.00 16 1008.8
20260904212511 98 125 5.0 10.0 0.00 0.00 0.00 15 1008.8
20260904212013 97 228 6.0 10.0 0.00 0.00 0.00 15 1008.8
20260904211515 97 130 7.0 10.0 0.00 0.00 0.00 16 1008.8
20260904211013 97 136 6.0 13.0 0.00 0.00 0.00 16 1008.8
20260904210515 97 168 10.0 11.0 0.00 0.00 0.00 16 1008.8
20260904210006 96 218 7.0 8.0 0.00 0.00 0.00 16 1009.8
20260904205505 96 151 3.0 13.0 0.00 0.00 0.00 16 1009.8
20260904205007 97 134 10.0 11.0 0.00 0.00 0.00 16 1009.8
20260904204508 97 126 7.0 12.0 0.00 0.00 0.00 16 1009.8
20260904204006 96 127 8.0 9.0 0.00 0.00 0.00 16 1009.8
20260904203508 96 165 6.0 11.0 0.00 0.00 0.00 16 1009.8
20260904203010 97 171 5.0 10.0 0.00 0.00 0.00 16 1009.8
20260904202508 97 192 4.0 10.0 0.00 0.00 0.00 16 1009.8
20260904202010 96 117 7.0 13.0 0.00 0.00 0.00 16 1009.8
20260904201512 96 64 0.0 13.0 0.00 0.00 0.00 16 1009.8
20260904201010 96 133 9.0 10.0 0.00 0.00 0.00 16 1009.8
20260904200512 95 160 4.0 11.0 0.00 0.00 0.00 17 1009.8
20260904200014 96 203 4.0 12.0 0.00 0.00 0.00 17 1009.8
20260904195512 95 124 9.0 9.0 0.00 0.00 0.00 17 1009.8
20260904195014 97 215 6.0 10.0 0.00 0.00 0.00 16 1009.8
20260904194516 96 174 0.0 9.0 0.00 0.00 0.00 16 1010.8
20260904194014 95 179 4.0 10.0 0.00 0.00 0.00 17 1010.8
20260904193516 95 119 4.0 12.0 0.00 0.00 0.00 17 1010.8
20260904193018 94 124 9.0 12.0 0.00 0.00 0.00 17 1010.8
20260904192517 94 144 7.0 12.0 0.00 0.00 0.00 17 1010.8
20260904192018 94 213 9.0 11.0 0.00 0.00 0.00 17 1010.8
20260904191520 94 191 6.0 13.0 0.00 0.00 0.00 17 1010.8
20260904191019 93 146 7.0 13.0 0.00 0.00 0.00 17 1010.8
20260904190516 94 194 5.0 9.0 0.00 0.00 0.00 16 1010.8
20260904190018 94 210 4.0 10.0 0.00 0.00 0.00 17 1010.8
20260904185516 94 193 7.0 9.0 0.00 0.00 0.00 17 1010.8
20260904185018 94 202 4.0 9.0 0.00 0.00 0.00 17 1010.8
20260904184520 93 184 4.0 11.0 0.00 0.00 0.00 18 1010.8
20260904184014 93 125 7.0 11.0 0.00 0.00 0.00 18 1010.8
20260904183516 92 216 8.0 10.0 0.00 0.00 0.00 18 1010.8
20260904183017 92 158 5.0 10.0 0.00 0.00 0.00 19 1011.8
20260904182516 93 135 3.0 8.0 0.00 0.00 0.00 18 1011.8
20260904182018 93 121 5.0 11.0 0.00 0.00 0.00 19 1011.8
20260904181520 92 200 4.0 11.0 0.00 0.00 0.00 19 1011.8
20260904181018 93 137 4.0 10.0 0.00 0.00 0.00 19 1011.8
20260904180520 92 104 6.0 15.0 0.00 0.00 0.00 21 1011.8
20260904180022 91 182 7.0 11.0 0.00 0.00 0.00 21 1011.8
20260904175520 93 261 6.0 7.0 0.00 0.00 0.00 20 1011.8
20260904175022 92 167 4.0 12.0 0.00 0.00 0.00 20 1011.8
20260904174524 91 198 4.0 12.0 0.00 0.00 0.00 21 1011.8
20260904174023 90 220 6.0 12.0 0.00 0.00 0.00 21 1011.8
20260904173520 91 213 7.0 8.0 0.00 0.00 0.00 20 1011.8
20260904173021 92 307 4.0 9.0 0.00 0.00 0.00 21 1011.8
20260904172520 91 176 5.0 11.0 0.00 0.00 0.00 22 1011.8
20260904172022 90 185 4.0 10.0 0.00 0.00 0.00 24 1011.8
20260904171519 90 153 3.0 13.0 0.00 0.00 0.00 27 1011.8
20260904171016 89 211 7.0 9.0 0.00 0.00 0.00 26 1011.8
20260904170518 90 218 4.0 7.0 0.00 0.00 0.00 25 1011.8
20260904170016 90 73 0.0 9.0 0.00 0.00 0.00 25 1011.8
20260904165514 89 125 7.0 8.0 0.00 0.00 0.00 25 1011.8
20260904165016 88 178 4.0 10.0 0.00 0.00 0.00 24 1011.8
20260904164518 89 240 4.0 12.0 0.00 0.00 0.00 25 1012.8
20260904164017 87 218 5.0 11.0 0.00 0.00 0.00 26 1012.8
20260904163518 87 194 8.0 11.0 0.00 0.00 0.00 25 1012.8
20260904163020 87 212 6.0 9.0 0.00 0.00 0.00 28 1012.8
20260904162514 88 216 4.0 12.0 0.00 0.00 0.00 30 1012.8
20260904162016 87 208 7.0 10.0 0.00 0.00 0.00 31 1012.8
20260904161509 86 166 6.0 13.0 0.00 0.00 0.00 37 1012.8
20260904161007 86 132 9.0 11.0 0.00 0.00 0.00 35 1012.8
20260904160509 86 173 7.0 13.0 0.00 0.00 0.00 35 1012.8
20260904155510 85 211 7.0 10.0 0.00 0.00 0.00 38 1012.8
20260904155007 85 206 5.0 12.0 0.00 0.00 0.00 42 1012.8
20260904154509 84 233 8.0 12.0 0.00 0.00 0.00 43 1012.8
20260904154007 84 197 6.0 10.0 0.00 0.00 0.00 41 1012.8
20260904153509 84 192 6.0 8.0 0.00 0.00 0.00 40 1012.8
20260904153011 84 147 4.0 9.0 0.00 0.00 0.00 46 1011.8
20260904152510 83 174 3.0 12.0 0.00 0.00 0.00 53 1011.8
20260904152012 82 218 11.0 10.0 0.00 0.00 0.00 54 1011.8
20260904151513 82 217 4.0 12.0 0.00 0.00 0.00 57 1011.8
20260904151012 82 220 7.0 10.0 0.00 0.00 0.00 58 1011.8
20260904150514 82 209 4.0 9.0 0.00 0.00 0.00 58 1011.8
20260904150016 82 221 6.0 9.0 0.00 0.00 0.00 61 1011.8
20260904145514 82 196 4.0 6.0 0.00 0.00 0.00 63 1011.8
20260904145016 82 178 3.0 7.0 0.00 0.00 0.00 65 1011.8
20260904144518 81 185 5.0 7.0 0.00 0.00 0.00 65 1011.8
20260904144017 82 117 5.0 10.0 0.00 0.00 0.00 68 1011.8
20260904143514 81 174 4.0 8.0 0.00 0.00 0.00 68 1011.8
20260904143011 81 129 5.0 8.0 0.00 0.00 0.00 67 1011.8
20260904142510 81 139 0.0 8.0 0.00 0.00 0.00 69 1011.8
20260904142011 81 124 6.0 10.0 0.00 0.00 0.00 70 1011.8
20260904141513 81 163 6.0 7.0 0.00 0.00 0.00 71 1011.8
20260904141012 81 129 5.0 8.0 0.00 0.00 0.00 71 1011.8
20260904140514 81 140 6.0 8.0 0.00 0.00 0.00 71 1011.8
20260904140016 81 143 4.0 6.0 0.00 0.00 0.00 73 1011.8
20260904135514 81 175 4.0 5.0 0.00 0.00 0.00 74 1011.8
20260904135016 81 135 0.0 7.0 0.00 0.00 0.00 75 1011.8
20260904134518 80 127 4.0 7.0 0.00 0.00 0.00 75 1011.8
20260904134017 80 173 4.0 7.0 0.00 0.00 0.00 75 1011.8
20260904133514 80 141 4.0 7.0 0.00 0.00 0.00 75 1011.8
20260904133016 80 135 5.0 6.0 0.00 0.00 0.00 76 1011.8
20260904132514 80 123 4.0 7.0 0.00 0.00 0.00 76 1011.8
20260904132016 80 124 5.0 7.0 0.00 0.00 0.00 76 1011.8
20260904131518 80 121 4.0 7.0 0.00 0.00 0.00 76 1011.8
20260904131017 80 159 4.0 8.0 0.00 0.00 0.00 76 1011.8
20260904130519 80 133 7.0 7.0 0.00 0.00 0.00 76 1011.8
20260904130020 80 118 6.0 7.0 0.00 0.00 0.00 76 1011.8
20260904125519 80 120 6.0 9.0 0.00 0.00 0.00 76 1011.8
20260904125021 80 120 6.0 9.0 0.00 0.00 0.00 76 1011.8
20260904124518 80 111 7.0 8.0 0.00 0.00 0.00 76 1010.8
20260904124012 80 113 7.0 8.0 0.00 0.00 0.00 77 1010.8
20260904123514 80 111 6.0 7.0 0.00 0.00 0.00 77 1010.8
20260904123016 80 136 5.0 6.0 0.00 0.00 0.00 77 1010.8
20260904122515 80 180 3.0 8.0 0.00 0.00 0.00 77 1010.8
20260904122017 80 179 5.0 7.0 0.00 0.00 0.00 76 1010.8
20260904121518 80 131 3.0 7.0 0.00 0.00 0.00 76 1010.8
20260904121017 80 130 5.0 7.0 0.00 0.00 0.00 76 1010.8
20260904120519 80 141 4.0 6.0 0.00 0.00 0.00 76 1010.8
20260904120021 80 137 3.0 5.0 0.00 0.00 0.00 76 1010.8
20260904115519 80 161 3.0 6.0 0.00 0.00 0.00 76 1010.8
20260904115428 80 147 3.0 8.0 0.00 0.00 0.00 77 1010.8
20260904115021 80 147 3.0 8.0 0.00 0.00 0.00 77 1010.8
20260904114523 80 137 4.0 7.0 0.00 0.00 0.00 77 1010.8
20260904114022 80 138 3.0 7.0 0.00 0.00 0.00 77 1010.8
20260904113524 80 143 0.0 5.0 0.00 0.00 0.00 77 1010.8
20260904113025 80 133 4.0 7.0 0.00 0.00 0.00 77 1010.8
20260904112524 80 144 3.0 7.0 0.00 0.00 0.00 77 1010.8
20260904112026 80 137 3.0 6.0 0.00 0.00 0.00 77 1010.8
20260904111523 80 210 0.0 5.0 0.00 0.00 0.00 77 1010.8
20260904111022 80 168 0.0 4.0 0.00 0.00 0.00 77 1010.8
20260904110524 80 155 3.0 6.0 0.00 0.00 0.00 77 1010.8
20260904110234 80 199 4.0 5.0 0.00 0.00 0.00 77 1010.8
20260904110026 80 199 4.0 5.0 0.00 0.00 0.00 77 1010.8
20260904105524 80 161 3.0 5.0 0.00 0.00 0.00 77 1010.8
20260904105026 80 181 0.0 5.0 0.00 0.00 0.00 77 1010.8
20260904104528 80 174 3.0 5.0 0.00 0.00 0.00 77 1010.8
20260904104027 80 176 0.0 6.0 0.00 0.00 0.00 76 1010.8
20260904103529 80 163 4.0 6.0 0.00 0.00 0.00 77 1010.8
20260904103030 80 137 0.0 6.0 0.00 0.00 0.00 77 1010.8
20260904102529 80 132 3.0 6.0 0.00 0.00 0.00 77 1010.8
20260904102031 80 194 3.0 7.0 0.00 0.00 0.00 77 1010.8
20260904101533 80 146 4.0 7.0 0.00 0.00 0.00 77 1010.8
20260904101031 80 135 4.0 7.0 0.00 0.00 0.00 77 1010.8
20260904100533 80 191 4.0 8.0 0.00 0.00 0.00 77 1010.8
20260904100035 80 149 4.0 8.0 0.00 0.00 0.00 77 1010.8
20260904095534 80 129 5.0 8.0 0.00 0.00 0.00 76 1010.8
20260904095036 80 128 5.0 7.0 0.00 0.00 0.00 76 1010.8
20260904094537 80 113 4.0 7.0 0.00 0.00 0.00 76 1009.8
20260904094036 80 135 4.0 6.0 0.00 0.00 0.00 76 1009.8
20260904093538 80 148 4.0 8.0 0.00 0.00 0.00 76 1009.8
20260904093035 80 155 6.0 10.0 0.00 0.00 0.00 76 1010.8
20260904092534 80 129 5.0 7.0 0.00 0.00 0.00 77 1010.8
20260904092036 80 151 5.0 8.0 0.00 0.00 0.00 77 1010.8
20260904091538 80 136 6.0 7.0 0.00 0.00 0.00 77 1009.8
20260904091031 80 144 5.0 10.0 0.00 0.00 0.00 77 1009.8
20260904090533 80 128 6.0 9.0 0.00 0.00 0.00 77 1009.8
20260904090035 80 131 6.0 11.0 0.00 0.00 0.00 77 1010.8
20260904085534 80 131 4.0 8.0 0.00 0.00 0.00 77 1010.8
20260904085035 80 135 4.0 8.0 0.00 0.00 0.00 77 1010.8
20260904084537 80 203 5.0 8.0 0.00 0.00 0.00 77 1009.8
20260904084036 80 197 4.0 8.0 0.00 0.00 0.00 77 1009.8
20260904083538 80 223 4.0 8.0 0.00 0.00 0.00 76 1009.8
20260904083040 80 135 4.0 10.0 0.00 0.00 0.00 76 1009.8
20260904082538 80 100 4.0 9.0 0.00 0.00 0.00 76 1009.8
20260904082040 80 149 4.0 6.0 0.00 0.00 0.00 76 1009.8
20260904081542 80 155 3.0 7.0 0.00 0.00 0.00 76 1009.8
20260904081041 79 222 4.0 9.0 0.00 0.00 0.00 76 1009.8
20260904080538 79 134 4.0 7.0 0.00 0.00 0.00 76 1009.8
20260904080040 79 149 4.0 8.0 0.00 0.00 0.00 76 1010.8
20260904075529 79 133 5.0 8.0 0.00 0.00 0.00 76 1010.8
20260904075031 79 128 4.0 6.0 0.00 0.00 0.00 77 1010.8
20260904074533 79 156 3.0 7.0 0.00 0.00 0.00 77 1010.8
20260904074031 79 192 0.0 7.0 0.00 0.00 0.00 76 1010.8
20260904073533 79 149 4.0 6.0 0.00 0.00 0.00 76 1010.8
20260904073035 79 182 5.0 10.0 0.00 0.00 0.00 76 1010.8
20260904072534 79 157 3.0 7.0 0.00 0.00 0.00 76 1010.8
20260904072036 79 121 3.0 8.0 0.00 0.00 0.00 76 1010.8